User: anonymous
Location: Caltech
(34.1382°N, 118.1253°W)
Time: 03:16:57
(UTC-07:00)
Language:

Cosmos 1975 - Orbit

View from above orbital plane
View from above orbital plane
View from above satellite
View from above satellite

Ground track
Ground track

The orbit data is extracted from the following two-line orbital elements,

1 19573U 88093A   14273.39073817  .00005811  00000-0  45423-3 0  3291
2 19573 082.5223 222.4572 0017602 070.3343 289.9779 15.00795024410974
Epoch (UTC): 30 September 2014 09:22:39
Eccentricity: 0.0017602
inclination: 82.5223°
perigee height: 552 km
apogee height: 576 km
right ascension of ascending node: 222.4572°
argument of perigee: 70.3343°
revolutions per day: 15.00795024
mean anomaly at epoch: 289.9779°
orbit number at epoch: 41097

The dashed part of the orbit path shows where the satellite is in the earth's shadow,  

DLR